Terug naar catalogus

STARLINK-34834

ActiefCommunicatieSSO
NORAD 65295·PAYLOAD·🇺🇸 United States

Gelanceerd Aug 22, 2025 vanaf Vandenberg Space Force Base

Loading…

Volgende Passages (komende 24 uur)

TLE

VersSource: CelesTrak SupGP

Epoch: Sep 15, 2026, 03:53 UTC

1 65295C 25184Y   26258.16229167  .00000105  00000+0  32641-5 0  2588
2 65295  97.2840 306.2326 0000933  81.5506  88.2000 15.33444572    18

Volg STARLINK-34834 in realtime met AllMySat

Download on the App Store